STARLINK-36249, 68532

Orbit data source: Space-Track

STARLINK-36249, 68532 is a payload satellite owned by SpaceX/Seattle (US) in LEO that was launched on Mon, 30 Mar 2026 UTC via an FALCON 9 launch vehicle from the Air Force Eastern Test Range (AFETR). Payload-class satellites include a variety of spacecraft equipped with specific instruments for various scientific and technological missions. These include communications satellites like Starlink; space stations such as the ISS; scientific satellites like the Hubble; Earth observation satellites from companies like Planet Labs, Umbra, and HawkEye 360; GPS; miniature CubeSats for education and research; and military/defense satellites.

Loading next visibility...
Identifier
68532, 2026-068AA
Orbit
LEO
Country
Flag of USUS
Related business
Manufacturer
SpaceX/Seattle
Mission
Operational spacecraft
Bus & Motor
STARLINK V2MO, Unknown motor
Mass
575 kg wet, ~530 kg dry
Launch date (UTC)
2026-03-30 (3 months ago)
Launch vehicle
FALCON 9
Launch site
Air Force Eastern Test Range (AFETR)
Object type
Payload
Rocket body
Debris
Shape & HBR
Unknown shape, 2.6 m
Radar Cross Section
Large (>1 m²)

Expand to show TLE details & history
Last TLE update: 1 day ago

TLE from 1 day ago
0 STARLINK-36249
1 68532U 26068AA  26170.86391993  .00024065  00000-0  72095-3 0  9993
2 68532  53.1584  12.8837 0001086  87.6308 272.4819 15.34406391 12617
Epoch: 2026-06-19T20:44Z
TLE epoch observation values (Epoch: 2026-06-19T20:44:02.681Z)
Latitude
-0.00004°
Longitude
153.78572°
Altitude
463.553 km
Speed
7.636 km/s
True Right ascension
00h 51m 32s
True Declination
0° 00' 00"
Sunlit
Object was in daylight at epoch
Visualization orbit readout
Latitude
Unknown
Longitude
Unknown
Altitude
Unknown
Speed
Unknown
Apparent Right ascension
Unknown
Apparent Declination
Unknown
Sunlit
N/A
Visualization observer readout
Local Sidereal Time
07:19:41
Azimuth
Unknown
Elevation
Unknown
Doppler factor
Unknown
Orbital elements
Apogee altitude
463.684 km
Perigee altitude
462.198 km
Semi-major axis
6,841.078 km
Eccentricity
0.00011
Inclination
53.1584°
RAAN
12.8837°
Arg. of periapsis
87.6308°
True anomaly
272.46947°
Mean anomaly
272.4819°
Eccentric anomaly
272.47568°
Mean motion
3.8358 °/min
Orbital period
93.85 mins
BSTAR
0.00072095
Loading maneuver chart data...
Computing Atmospheric mass density...
Loading historical data...
Loading historical data...
Loading historical data...
Loading historical data...
Loading historical data...
Loading historical data...
Loading historical data...

Documentation

Showing up to 5 results
|